Home   Weather   Davis   Past weeks

Flag for USA Past Weather in Davis, California, USA — Yesterday and Last 2 Weeks

Now
84 °F

Sunny.


Feels Like: 83 °F
Forecast: 59 / 90 °F
Wind: 6 mph from West

Location: Sacramento International Airport

Current Time: Jul 25, 2017 at 2:02:03 pm

Latest Report: Jul 25, 2017 at 12:53 pm


Visibility: 10 mi

Pressure: 29.89 "Hg

Humidity: 35%

Dew Point: 53 °F

Location of DavisLocation

Past Weather in Davis — Graph

°F

Davis Temperature Yesterday

Maximum temperature yesterday: 92 °F (at 2:53 pm)
Minimum temperature yesterday: 63 °F (at 6:53 am)
Average temperature yesterday: 77 °F

High & Low Weather Summary for the Past Weeks

 TemperatureHumidityPressure
High103 °F (Jul 16, 2:53 pm)87% (Jul 16, 5:53 am)30.00 "Hg (Jul 16, 5:53 am)
Low58 °F (Jul 12, 5:53 am)14% (Jul 17, 3:53 pm)29.68 "Hg (Jul 23, 6:53 pm)
Average78 °F47%29.85 "Hg
* Reported Jul 10 11:53 am — Jul 25 11:53 am, Davis. Weather by CustomWeather, © 2017

Note: Actual official high and low records may vary slightly from our data, if they occured in-between our weather recording intervals... More about our weather records

Advertising

Davis Weather History for the Previous 24 Hours

Scroll right to see more
 ConditionsComfort  
Time TempWeatherWind HumidityBarometerVisibility
11:53 am
Tue, Jul 25
82 °FSunny.5 mph40%29.90 "Hg10 mi
10:53 am79 °FSunny.6 mph45%29.91 "Hg10 mi
9:53 am74 °FSunny.6 mph53%29.91 "Hg10 mi
8:53 am68 °FSunny.6 mph63%29.90 "Hg10 mi
7:53 am64 °FSunny.6 mph73%29.89 "Hg10 mi
6:53 am61 °FSunny.7 mph81%29.87 "Hg10 mi
5:53 am60 °FClear.6 mph80%29.85 "Hg10 mi
4:53 am61 °FClear.6 mph78%29.84 "Hg10 mi
3:53 am62 °FClear.7 mph78%29.83 "Hg10 mi
2:53 am64 °FClear.10 mph70%29.83 "Hg10 mi
1:53 am66 °FClear.6 mph65%29.83 "Hg10 mi
12:53 am67 °FClear.7 mph61%29.83 "Hg10 mi
11:53 pm
Mon, Jul 24
66 °FClear.8 mph65%29.82 "Hg10 mi
10:53 pm67 °FClear.12 mph61%29.81 "Hg10 mi
9:53 pm71 °FClear.9 mph53%29.80 "Hg10 mi
8:53 pm76 °FClear.7 mph47%29.78 "Hg10 mi
7:53 pm81 °FSunny.12 mph35%29.76 "Hg10 mi
6:53 pm85 °FSunny.13 mph30%29.75 "Hg10 mi
5:53 pm89 °FSunny.15 mph26%29.74 "Hg10 mi
4:53 pm92 °FSunny.17 mph19%29.74 "Hg10 mi
3:53 pm92 °FSunny.15 mph18%29.75 "Hg10 mi
2:53 pm92 °FSunny.16 mph21%29.76 "Hg10 mi
Weather by CustomWeather, © 2017

See weather overviewHow to use our weather pages